This demonstration page uses our WeatherBlox Daily Observations layout. Learn more.

Left ArrowRight Arrow

38.80484, -77.04692

Hourly Observations for September 8, 2021

Temp ( °F °C ) Dew Point ( °F °C ) Humidity (%) Winds ( mph kmh ) Pressure ( in mb ) Visibility ( mi km ) Precip ( " mm )
12:52 am 00:52 Clear 72 22.2 60 15.6 66 66 SSW 9 15 29.95 1014 10 16 N/A
1:52 am 01:52 Clear 71 21.7 61 16.1 71 71 SSW 9 15 29.93 1014 10 16 N/A
2:52 am 02:52 Clear 71 21.7 63 17.2 76 76 S 12 19 29.91 1013 10 16 N/A
3:52 am 03:52 Clear 70 21.1 63 17.2 79 79 S 8 13 29.91 1013 10 16 N/A
4:52 am 04:52 Clear 69 20.6 63 17.2 81 81 SSW 7 11 29.90 1012 10 16 N/A
5:52 am 05:52 Clear 68 20 63 17.2 84 84 SW 3 6 29.89 1012 10 16 N/A
6:52 am 06:52 Partly Cloudy 69 20.6 65 18.3 87 87 S 9 15 29.89 1012 10 16 N/A
7:05 am 07:05 Mostly Cloudy 70 21.1 65 18.3 84 84 S 10 17 29.89 1012 10 16 N/A
7:17 am 07:17 Cloudy 70 21.1 65 18.3 84 84 S 12 19 29.89 1012 10 16 N/A
7:52 am 07:52 Cloudy 71 21.7 66 18.9 84 84 S 12 19 29.89 1012 9 14 N/A
8:52 am 08:52 Mostly Cloudy 73 22.8 67 19.4 81 81 SSW 10 17 29.89 1012 10 16 N/A
9:38 am 09:38 Partly Cloudy 75 23.9 67 19.4 76 76 S 9 15 29.87 1011 10 16 N/A
9:52 am 09:52 Mostly Sunny 75 23.9 68 20 79 79 S 10 17 29.87 1012 10 16 N/A
10:52 am 10:52 Mostly Cloudy 77 25 69 20.6 77 77 S 14 22 29.86 1011 10 16 N/A
11:52 am 11:52 Mostly Cloudy 80 26.7 68 20 67 67 S 8 13 29.86 1011 10 16 N/A
12:52 pm 12:52 Mostly Cloudy 83 28.3 69 20.6 63 63 S 9 15 29.84 1010 10 16 N/A
1:52 pm 13:52 Mostly Cloudy 83 28.3 70 21.1 65 65 S 13 20 29.81 1010 10 16 N/A
2:52 pm 14:52 Mostly Cloudy 85 29.4 69 20.6 59 59 S 14 22 29.78 1009 10 16 N/A
3:52 pm 15:52 Mostly Cloudy 87 30.6 71 21.7 59 59 S 13 20 29.76 1008 10 16 N/A
4:52 pm 16:52 Mostly Cloudy 84 28.9 71 21.7 65 65 S 15 24 29.75 1008 10 16 N/A
5:52 pm 17:52 Partly Cloudy 82 27.8 70 21.1 67 67 S 15 24 29.76 1008 10 16 N/A
6:52 pm 18:52 Partly Cloudy 81 27.2 71 21.7 72 72 S 10 17 29.77 1008 10 16 N/A
7:52 pm 19:52 Partly Cloudy 79 26.1 71 21.7 77 77 S 14 22 29.78 1008 10 16 N/A
8:09 pm 20:09 Partly Cloudy with Nearby Thunderstorms 79 26.1 70 21.1 74 74 S 15 24 29.78 1008 10 16 N/A
8:23 pm 20:23 Partly Cloudy 78 25.6 70 21.1 76 76 S 13 20 29.78 1008 10 16 N/A
8:52 pm 20:52 Partly Cloudy 77 25 70 21.1 79 79 S 12 19 29.78 1008 10 16 N/A
9:52 pm 21:52 Mostly Cloudy 77 25 70 21.1 79 79 S 12 19 29.77 1008 10 16 N/A
9:59 pm 21:59 Mostly Cloudy 77 25 70 21.1 79 79 S 13 20 29.77 1008 10 16 N/A
10:39 pm 22:39 Mostly Cloudy 77 25 71 21.7 82 82 S 9 15 29.78 1008 10 16 N/A
10:52 pm 22:52 Mostly Cloudy 77 25 71 21.7 82 82 S 12 19 29.78 1009 10 16 N/A
11:52 pm 23:52 Mostly Cloudy 77 25 69 20.6 77 77 S 10 17 29.78 1008 10 16 N/A

Powered by AerisWeather